owner,sensor,date,latitude,longitude,vertical_datum,direction_of_sea_water_velocity,sea_water_speed,upward_sea_water_velocity,qcFlag 
TABS,ioos:station:wmo:42048:1,2005-06-01T00:00:00Z,27.9396,-96.8429,2.0,292.8527929,23.68942591,-99999.0,'11111222,11111222,99999999' 
TABS,ioos:station:wmo:42048:1,2005-06-01T00:30:00Z,27.9396,-96.8429,2.0,299.0482743,24.98244384,-99999.0,'11111222,11111222,99999999' 
TABS,ioos:station:wmo:42048:1,2005-06-01T01:00:00Z,27.9396,-96.8429,2.0,299.0383086,26.74144349,-99999.0,'11111222,11111222,99999999' 
TABS,ioos:station:wmo:42048:1,2005-06-01T01:30:00Z,27.9396,-96.8429,2.0,300.1814263,21.34327529,-99999.0,'11111222,11111222,99999999' 
TABS,ioos:station:wmo:42048:1,2005-06-01T02:00:00Z,27.9396,-96.8429,2.0,308.4892143,22.51098621,-99999.0,'11111222,11111222,99999999' 
TABS,ioos:station:wmo:42048:1,2005-06-01T02:30:00Z,27.9396,-96.8429,2.0,309.977821,22.61525591,-99999.0,'11111222,11111222,99999999' 
TABS,ioos:station:wmo:42048:1,2005-06-01T03:00:00Z,27.9396,-96.8429,2.0,309.8835673,21.72403738,-99999.0,'11111222,11111222,99999999' 
TABS,ioos:station:wmo:42048:1,2005-06-01T03:30:00Z,27.9396,-96.8429,2.0,316.8053757,20.87708073,-99999.0,'11111222,11111222,99999999' 
TABS,ioos:station:wmo:42048:1,2005-06-01T04:00:00Z,27.9396,-96.8429,2.0,321.4033076,21.36770694,-99999.0,'11111222,11111222,99999999' 
TABS,ioos:station:wmo:42048:1,2005-06-01T04:30:00Z,27.9396,-96.8429,2.0,322.74659,20.30245552,-99999.0,'11111222,11111222,99999999' 
TABS,ioos:station:wmo:42048:1,2005-06-01T05:00:00Z,27.9396,-96.8429,2.0,328.7854105,16.82588779,-99999.0,'11111222,11111222,99999999' 
TABS,ioos:station:wmo:42048:1,2005-06-01T05:30:00Z,27.9396,-96.8429,2.0,322.1168767,17.86479499,-99999.0,'11111222,11111222,99999999' 
TABS,ioos:station:wmo:42048:1,2005-06-01T06:00:00Z,27.9396,-96.8429,2.0,334.9671016,14.88858959,-99999.0,'11111222,11111222,99999999' 
TABS,ioos:station:wmo:42048:1,2005-06-01T06:30:00Z,27.9396,-96.8429,2.0,349.6133385,14.36540984,-99999.0,'11111222,11111222,99999999' 
TABS,ioos:station:wmo:42048:1,2005-06-01T07:00:00Z,27.9396,-96.8429,2.0,347.6107404,9.368169512,-99999.0,'11133222,11111222,99999999' 
TABS,ioos:station:wmo:42048:1,2005-06-01T07:30:00Z,27.9396,-96.8429,2.0,353.4158675,9.069823593,-99999.0,'11133222,11111222,99999999' 
TABS,ioos:station:wmo:42048:1,2005-06-01T08:00:00Z,27.9396,-96.8429,2.0,1.730090035,8.944076252,-99999.0,'11133222,11111222,99999999' 
TABS,ioos:station:wmo:42048:1,2005-06-01T08:30:00Z,27.9396,-96.8429,2.0,11.99260287,6.256548569,-99999.0,'11133222,11111222,99999999' 
TABS,ioos:station:wmo:42048:1,2005-06-01T09:00:00Z,27.9396,-96.8429,2.0,11.07877597,4.371464286,-99999.0,'11133222,11111222,99999999' 
TABS,ioos:station:wmo:42048:1,2005-06-01T09:30:00Z,27.9396,-96.8429,2.0,353.2903893,2.567586415,-99999.0,'11133222,11111222,99999999' 
TABS,ioos:station:wmo:42048:1,2005-06-01T10:00:00Z,27.9396,-96.8429,2.0,313.3637425,0.990353472,-99999.0,'11133222,11111222,99999999' 
TABS,ioos:station:wmo:42048:1,2005-06-01T10:30:00Z,27.9396,-96.8429,2.0,268.2096727,3.201562119,-99999.0,'11133222,11111222,99999999' 
TABS,ioos:station:wmo:42048:1,2005-06-01T11:00:00Z,27.9396,-96.8429,2.0,12.52898887,1.106345335,-99999.0,'11133222,11111222,99999999' 
TABS,ioos:station:wmo:42048:1,2005-06-01T11:30:00Z,27.9396,-96.8429,2.0,85.91439277,0.701783442,-99999.0,'11133222,11111222,99999999' 
TABS,ioos:station:wmo:42048:1,2005-06-01T12:00:00Z,27.9396,-96.8429,2.0,160.3593077,20.2905027,-99999.0,'11111222,11111222,99999999' 
TABS,ioos:station:wmo:42048:1,2005-06-01T12:30:00Z,27.9396,-96.8429,2.0,203.876904,13.63712946,-99999.0,'11111222,11111222,99999999' 
TABS,ioos:station:wmo:42048:1,2005-06-01T13:00:00Z,27.9396,-96.8429,2.0,202.9587635,7.537055128,-99999.0,'11133222,11111222,99999999' 
TABS,ioos:station:wmo:42048:1,2005-06-01T13:30:00Z,27.9396,-96.8429,2.0,197.8919546,13.01968126,-99999.0,'11111222,11111222,99999999' 
TABS,ioos:station:wmo:42048:1,2005-06-01T14:00:00Z,27.9396,-96.8429,2.0,205.8214415,23.09605378,-99999.0,'11111222,11111222,99999999' 
TABS,ioos:station:wmo:42048:1,2005-06-01T14:30:00Z,27.9396,-96.8429,2.0,209.378449,26.78460752,-99999.0,'11111222,11111222,99999999' 
TABS,ioos:station:wmo:42048:1,2005-06-01T15:00:00Z,27.9396,-96.8429,2.0,225.5618607,25.22371305,-99999.0,'11111222,11111222,99999999' 
TABS,ioos:station:wmo:42048:1,2005-06-01T15:30:00Z,27.9396,-96.8429,2.0,215.0485671,27.25176325,-99999.0,'11111222,11111222,99999999' 
TABS,ioos:station:wmo:42048:1,2005-06-01T16:00:00Z,27.9396,-96.8429,2.0,226.6253836,27.66608212,-99999.0,'11111222,11111222,99999999' 
TABS,ioos:station:wmo:42048:1,2005-06-01T16:30:00Z,27.9396,-96.8429,2.0,228.2349123,23.9312787,-99999.0,'11111222,11111222,99999999' 
TABS,ioos:station:wmo:42048:1,2005-06-01T17:00:00Z,27.9396,-96.8429,2.0,233.0375745,23.61603057,-99999.0,'11111222,11111222,99999999' 
TABS,ioos:station:wmo:42048:1,2005-06-01T17:30:00Z,27.9396,-96.8429,2.0,230.6672003,25.27534174,-99999.0,'11111222,11111222,99999999' 
TABS,ioos:station:wmo:42048:1,2005-06-01T18:00:00Z,27.9396,-96.8429,2.0,236.6410819,23.96899664,-99999.0,'11111222,11111222,99999999' 
TABS,ioos:station:wmo:42048:1,2005-06-01T18:30:00Z,27.9396,-96.8429,2.0,240.8209868,24.22392619,-99999.0,'11111222,11111222,99999999' 
TABS,ioos:station:wmo:42048:1,2005-06-01T19:00:00Z,27.9396,-96.8429,2.0,236.3171812,20.93438559,-99999.0,'11111222,11111222,99999999' 
TABS,ioos:station:wmo:42048:1,2005-06-01T19:30:00Z,27.9396,-96.8429,2.0,230.9708604,17.94473739,-99999.0,'11111222,11111222,99999999' 
TABS,ioos:station:wmo:42048:1,2005-06-01T20:00:00Z,27.9396,-96.8429,2.0,229.883506,15.11625615,-99999.0,'11111222,11111222,99999999' 
TABS,ioos:station:wmo:42048:1,2005-06-01T20:30:00Z,27.9396,-96.8429,2.0,239.815969,15.8719501,-99999.0,'11111222,11111222,99999999' 
TABS,ioos:station:wmo:42048:1,2005-06-01T21:00:00Z,27.9396,-96.8429,2.0,236.7779077,14.93025452,-99999.0,'11111222,11111222,99999999' 
TABS,ioos:station:wmo:42048:1,2005-06-01T21:30:00Z,27.9396,-96.8429,2.0,227.2503199,14.58472146,-99999.0,'11111222,11111222,99999999' 
TABS,ioos:station:wmo:42048:1,2005-06-01T22:00:00Z,27.9396,-96.8429,2.0,232.1744558,12.11568405,-99999.0,'11111222,11111222,99999999' 
TABS,ioos:station:wmo:42048:1,2005-06-01T22:30:00Z,27.9396,-96.8429,2.0,233.7406136,11.81867167,-99999.0,'11111222,11111222,99999999' 
TABS,ioos:station:wmo:42048:1,2005-06-01T23:00:00Z,27.9396,-96.8429,2.0,181.7780048,12.24589727,-99999.0,'11111222,11111222,99999999' 
TABS,ioos:station:wmo:42048:1,2005-06-01T23:30:00Z,27.9396,-96.8429,2.0,194.3730956,12.36710556,-99999.0,'11111222,11111222,99999999' 
TABS,ioos:station:wmo:42048:1,2005-06-02T00:00:00Z,27.9396,-96.8429,2.0,198.0125648,14.16422606,-99999.0,'11111222,11111222,99999999' 
TABS,ioos:station:wmo:42048:1,2005-06-02T00:30:00Z,27.9396,-96.8429,2.0,198.0648238,10.28710358,-99999.0,'11111222,11111222,99999999' 
TABS,ioos:station:wmo:42048:1,2005-06-02T01:00:00Z,27.9396,-96.8429,2.0,186.6426493,11.49718661,-99999.0,'11111222,11111222,99999999' 
TABS,ioos:station:wmo:42048:1,2005-06-02T01:30:00Z,27.9396,-96.8429,2.0,197.7001759,7.893693685,-99999.0,'11133222,11111222,99999999' 
TABS,ioos:station:wmo:42048:1,2005-06-02T02:00:00Z,27.9396,-96.8429,2.0,202.6196016,7.8,-99999.0,'11133222,11111222,99999999' 
TABS,ioos:station:wmo:42048:1,2005-06-02T02:30:00Z,27.9396,-96.8429,2.0,194.1733264,9.107238879,-99999.0,'11133222,11111222,99999999' 
TABS,ioos:station:wmo:42048:1,2005-06-02T03:00:00Z,27.9396,-96.8429,2.0,193.5754959,10.86352153,-99999.0,'11111222,11111222,99999999' 
TABS,ioos:station:wmo:42048:1,2005-06-02T03:30:00Z,27.9396,-96.8429,2.0,182.0055981,13.42822773,-99999.0,'11111222,11111222,99999999' 
TABS,ioos:station:wmo:42048:1,2005-06-02T04:00:00Z,27.9396,-96.8429,2.0,181.156612,11.39232198,-99999.0,'11111222,11111222,99999999' 
TABS,ioos:station:wmo:42048:1,2005-06-02T04:30:00Z,27.9396,-96.8429,2.0,196.4061259,7.682825001,-99999.0,'11133222,11111222,99999999' 
TABS,ioos:station:wmo:42048:1,2005-06-02T05:00:00Z,27.9396,-96.8429,2.0,171.1123185,12.94542776,-99999.0,'11111222,11111222,99999999' 
TABS,ioos:station:wmo:42048:1,2005-06-02T05:30:00Z,27.9396,-96.8429,2.0,200.8377085,9.276793627,-99999.0,'11133222,11111222,99999999' 
TABS,ioos:station:wmo:42048:1,2005-06-02T06:00:00Z,27.9396,-96.8429,2.0,182.6058769,14.73524007,-99999.0,'11111222,11111222,99999999' 
TABS,ioos:station:wmo:42048:1,2005-06-02T06:30:00Z,27.9396,-96.8429,2.0,188.8859765,12.75307414,-99999.0,'11111222,11111222,99999999' 
TABS,ioos:station:wmo:42048:1,2005-06-02T07:00:00Z,27.9396,-96.8429,2.0,187.0390174,10.77118842,-99999.0,'11111222,11111222,99999999' 
TABS,ioos:station:wmo:42048:1,2005-06-02T07:30:00Z,27.9396,-96.8429,2.0,191.3562774,9.648917038,-99999.0,'11133222,11111222,99999999' 
TABS,ioos:station:wmo:42048:1,2005-06-02T08:00:00Z,27.9396,-96.8429,2.0,168.2637574,2.900637861,-99999.0,'11133222,11111222,99999999' 
TABS,ioos:station:wmo:42048:1,2005-06-02T08:30:00Z,27.9396,-96.8429,2.0,168.2981854,9.466747065,-99999.0,'11133222,11111222,99999999' 
TABS,ioos:station:wmo:42048:1,2005-06-02T09:00:00Z,27.9396,-96.8429,2.0,182.2518286,10.68825524,-99999.0,'11111222,11111222,99999999' 
TABS,ioos:station:wmo:42048:1,2005-06-02T09:30:00Z,27.9396,-96.8429,2.0,190.7344328,9.180659018,-99999.0,'11133222,11111222,99999999' 
TABS,ioos:station:wmo:42048:1,2005-06-02T10:00:00Z,27.9396,-96.8429,2.0,108.0604297,2.419194081,-99999.0,'11133222,11111222,99999999' 
TABS,ioos:station:wmo:42048:1,2005-06-02T10:30:00Z,27.9396,-96.8429,2.0,111.812072,9.930986859,-99999.0,'11133222,11111222,99999999' 
TABS,ioos:station:wmo:42048:1,2005-06-02T11:00:00Z,27.9396,-96.8429,2.0,138.4541217,11.38388774,-99999.0,'11111222,11111222,99999999' 
TABS,ioos:station:wmo:42048:1,2005-06-02T11:30:00Z,27.9396,-96.8429,2.0,141.6519665,8.60686354,-99999.0,'11133222,11111222,99999999' 
TABS,ioos:station:wmo:42048:1,2005-06-02T12:00:00Z,27.9396,-96.8429,2.0,147.129527,8.917718318,-99999.0,'11133222,11111222,99999999' 
TABS,ioos:station:wmo:42048:1,2005-06-02T12:30:00Z,27.9396,-96.8429,2.0,117.7125142,5.8059969,-99999.0,'11133222,11111222,99999999' 
TABS,ioos:station:wmo:42048:1,2005-06-02T13:00:00Z,27.9396,-96.8429,2.0,88.78112762,7.521701935,-99999.0,'11133222,11111222,99999999' 
TABS,ioos:station:wmo:42048:1,2005-06-02T13:30:00Z,27.9396,-96.8429,2.0,115.3088351,8.771966712,-99999.0,'11133222,11111222,99999999' 
TABS,ioos:station:wmo:42048:1,2005-06-02T14:00:00Z,27.9396,-96.8429,2.0,139.8438838,2.930818998,-99999.0,'11133222,11111222,99999999' 
TABS,ioos:station:wmo:42048:1,2005-06-02T14:30:00Z,27.9396,-96.8429,2.0,98.88277246,8.289420969,-99999.0,'11133222,11111222,99999999' 
TABS,ioos:station:wmo:42048:1,2005-06-02T15:00:00Z,27.9396,-96.8429,2.0,120.0965959,9.292857472,-99999.0,'11133222,11111222,99999999' 
TABS,ioos:station:wmo:42048:1,2005-06-02T15:30:00Z,27.9396,-96.8429,2.0,112.4377822,7.021573898,-99999.0,'11133222,11111222,99999999' 
TABS,ioos:station:wmo:42048:1,2005-06-02T16:00:00Z,27.9396,-96.8429,2.0,107.4108024,9.023419529,-99999.0,'11133222,11111222,99999999' 
TABS,ioos:station:wmo:42048:1,2005-06-02T16:30:00Z,27.9396,-96.8429,2.0,85.66206381,12.29522265,-99999.0,'11111222,11111222,99999999' 
TABS,ioos:station:wmo:42048:1,2005-06-02T17:00:00Z,27.9396,-96.8429,2.0,100.9799199,11.9181752,-99999.0,'11111222,11111222,99999999' 
TABS,ioos:station:wmo:42048:1,2005-06-02T17:30:00Z,27.9396,-96.8429,2.0,134.79478,11.85118559,-99999.0,'11111222,11111222,99999999' 
TABS,ioos:station:wmo:42048:1,2005-06-02T18:00:00Z,27.9396,-96.8429,2.0,111.2598919,12.57584987,-99999.0,'11111222,11111222,99999999' 
TABS,ioos:station:wmo:42048:1,2005-06-02T18:30:00Z,27.9396,-96.8429,2.0,114.5009606,10.80274502,-99999.0,'11111222,11111222,99999999' 
TABS,ioos:station:wmo:42048:1,2005-06-02T19:00:00Z,27.9396,-96.8429,2.0,120.4628762,11.18384996,-99999.0,'11111222,11111222,99999999' 
TABS,ioos:station:wmo:42048:1,2005-06-02T19:30:00Z,27.9396,-96.8429,2.0,120.4943788,10.05015423,-99999.0,'11111222,11111222,99999999' 
TABS,ioos:station:wmo:42048:1,2005-06-02T20:00:00Z,27.9396,-96.8429,2.0,123.1941301,7.050503528,-99999.0,'11133222,11111222,99999999' 
TABS,ioos:station:wmo:42048:1,2005-06-02T20:30:00Z,27.9396,-96.8429,2.0,116.9727804,7.540212199,-99999.0,'11133222,11111222,99999999' 
TABS,ioos:station:wmo:42048:1,2005-06-02T21:00:00Z,27.9396,-96.8429,2.0,145.9389604,11.99841656,-99999.0,'11111222,11111222,99999999' 
TABS,ioos:station:wmo:42048:1,2005-06-02T21:30:00Z,27.9396,-96.8429,2.0,160.5938642,11.19607074,-99999.0,'11111222,11111222,99999999' 
TABS,ioos:station:wmo:42048:1,2005-06-02T22:00:00Z,27.9396,-96.8429,2.0,180.6524965,7.900512642,-99999.0,'11133222,11111222,99999999' 
TABS,ioos:station:wmo:42048:1,2005-06-02T22:30:00Z,27.9396,-96.8429,2.0,207.4599502,7.156290939,-99999.0,'11133222,11111222,99999999' 
TABS,ioos:station:wmo:42048:1,2005-06-02T23:00:00Z,27.9396,-96.8429,2.0,193.8246895,4.60335747,-99999.0,'11133222,11111222,99999999' 
TABS,ioos:station:wmo:42048:1,2005-06-02T23:30:00Z,27.9396,-96.8429,2.0,227.4467272,6.624560363,-99999.0,'11133222,11111222,99999999' 
TABS,ioos:station:wmo:42048:1,2005-06-03T00:00:00Z,27.9396,-96.8429,2.0,240.1381154,7.310622409,-99999.0,'11133222,11111222,99999999' 
TABS,ioos:station:wmo:42048:1,2005-06-03T00:30:00Z,27.9396,-96.8429,2.0,242.3321556,6.740756634,-99999.0,'11133222,11111222,99999999' 
TABS,ioos:station:wmo:42048:1,2005-06-03T01:00:00Z,27.9396,-96.8429,2.0,231.6960463,5.275651619,-99999.0,'11133222,11111222,99999999' 
TABS,ioos:station:wmo:42048:1,2005-06-03T01:30:00Z,27.9396,-96.8429,2.0,268.0743999,7.144032475,-99999.0,'11133222,11111222,99999999' 
TABS,ioos:station:wmo:42048:1,2005-06-03T02:00:00Z,27.9396,-96.8429,2.0,268.148463,5.262746431,-99999.0,'11133222,11111222,99999999' 
TABS,ioos:station:wmo:42048:1,2005-06-03T02:30:00Z,27.9396,-96.8429,2.0,263.5421991,7.557949457,-99999.0,'11133222,11111222,99999999' 
TABS,ioos:station:wmo:42048:1,2005-06-03T03:00:00Z,27.9396,-96.8429,2.0,329.0555931,5.153532769,-99999.0,'11133222,11111222,99999999' 
TABS,ioos:station:wmo:42048:1,2005-06-03T03:30:00Z,27.9396,-96.8429,2.0,1.114771125,2.570486335,-99999.0,'11133222,11111222,99999999' 
TABS,ioos:station:wmo:42048:1,2005-06-03T04:00:00Z,27.9396,-96.8429,2.0,336.1330207,4.275628609,-99999.0,'11133222,11111222,99999999' 
TABS,ioos:station:wmo:42048:1,2005-06-03T04:30:00Z,27.9396,-96.8429,2.0,12.83375007,3.466597756,-99999.0,'11133222,11111222,99999999' 
TABS,ioos:station:wmo:42048:1,2005-06-03T05:00:00Z,27.9396,-96.8429,2.0,17.95766351,3.794864951,-99999.0,'11133222,11111222,99999999' 
TABS,ioos:station:wmo:42048:1,2005-06-03T05:30:00Z,27.9396,-96.8429,2.0,8.390136217,6.236745946,-99999.0,'11133222,11111222,99999999' 
TABS,ioos:station:wmo:42048:1,2005-06-03T06:00:00Z,27.9396,-96.8429,2.0,31.18511219,7.106954341,-99999.0,'11133222,11111222,99999999' 
TABS,ioos:station:wmo:42048:1,2005-06-03T06:30:00Z,27.9396,-96.8429,2.0,73.01241571,4.75758342,-99999.0,'11133222,11111222,99999999' 
TABS,ioos:station:wmo:42048:1,2005-06-03T07:00:00Z,27.9396,-96.8429,2.0,101.4298071,6.560099085,-99999.0,'11133222,11111222,99999999' 
TABS,ioos:station:wmo:42048:1,2005-06-03T07:30:00Z,27.9396,-96.8429,2.0,89.08212426,7.49096122,-99999.0,'11133222,11111222,99999999' 
TABS,ioos:station:wmo:42048:1,2005-06-03T08:00:00Z,27.9396,-96.8429,2.0,82.67550953,8.549766079,-99999.0,'11133222,11111222,99999999' 
TABS,ioos:station:wmo:42048:1,2005-06-03T08:30:00Z,27.9396,-96.8429,2.0,88.61088592,8.662545815,-99999.0,'11133222,11111222,99999999' 
TABS,ioos:station:wmo:42048:1,2005-06-03T09:00:00Z,27.9396,-96.8429,2.0,86.82017732,11.35748652,-99999.0,'11111222,11111222,99999999' 
TABS,ioos:station:wmo:42048:1,2005-06-03T09:30:00Z,27.9396,-96.8429,2.0,88.95737826,10.44172878,-99999.0,'11111222,11111222,99999999' 
TABS,ioos:station:wmo:42048:1,2005-06-03T10:00:00Z,27.9396,-96.8429,2.0,89.02425609,8.221192128,-99999.0,'11133222,11111222,99999999' 
TABS,ioos:station:wmo:42048:1,2005-06-03T10:30:00Z,27.9396,-96.8429,2.0,98.30746868,9.135863397,-99999.0,'11133222,11111222,99999999' 
TABS,ioos:station:wmo:42048:1,2005-06-03T11:00:00Z,27.9396,-96.8429,2.0,81.99304465,7.896986767,-99999.0,'11133222,11111222,99999999' 
TABS,ioos:station:wmo:42048:1,2005-06-03T11:30:00Z,27.9396,-96.8429,2.0,85.12611498,9.062769996,-99999.0,'11133222,11111222,99999999' 
TABS,ioos:station:wmo:42048:1,2005-06-03T12:00:00Z,27.9396,-96.8429,2.0,97.30574245,9.829801626,-99999.0,'11133222,11111222,99999999' 
TABS,ioos:station:wmo:42048:1,2005-06-03T12:30:00Z,27.9396,-96.8429,2.0,84.20437308,8.714545312,-99999.0,'11133222,11111222,99999999' 
TABS,ioos:station:wmo:42048:1,2005-06-03T13:00:00Z,27.9396,-96.8429,2.0,78.36455404,8.974419201,-99999.0,'11133222,11111222,99999999' 
TABS,ioos:station:wmo:42048:1,2005-06-03T13:30:00Z,27.9396,-96.8429,2.0,92.26129995,9.377302384,-99999.0,'11133222,11111222,99999999' 
TABS,ioos:station:wmo:42048:1,2005-06-03T14:00:00Z,27.9396,-96.8429,2.0,83.37379885,8.406152509,-99999.0,'11133222,11111222,99999999' 
TABS,ioos:station:wmo:42048:1,2005-06-03T14:30:00Z,27.9396,-96.8429,2.0,88.87944567,8.181564643,-99999.0,'11133222,11111222,99999999' 
TABS,ioos:station:wmo:42048:1,2005-06-03T15:00:00Z,27.9396,-96.8429,2.0,66.7742449,5.528001447,-99999.0,'11133222,11111222,99999999' 
TABS,ioos:station:wmo:42048:1,2005-06-03T15:30:00Z,27.9396,-96.8429,2.0,47.98961842,7.321447944,-99999.0,'11133222,11111222,99999999' 
TABS,ioos:station:wmo:42048:1,2005-06-03T16:00:00Z,27.9396,-96.8429,2.0,56.91522444,7.089464014,-99999.0,'11133222,11111222,99999999' 
TABS,ioos:station:wmo:42048:1,2005-06-03T16:30:00Z,27.9396,-96.8429,2.0,66.93273868,6.304038388,-99999.0,'11133222,11111222,99999999' 
TABS,ioos:station:wmo:42048:1,2005-06-03T17:00:00Z,27.9396,-96.8429,2.0,53.19094745,9.430005302,-99999.0,'11133222,11111222,99999999' 
TABS,ioos:station:wmo:42048:1,2005-06-03T17:30:00Z,27.9396,-96.8429,2.0,64.27363924,11.61090866,-99999.0,'11111222,11111222,99999999' 
TABS,ioos:station:wmo:42048:1,2005-06-03T18:00:00Z,27.9396,-96.8429,2.0,57.9018969,11.78083189,-99999.0,'11111222,11111222,99999999' 
TABS,ioos:station:wmo:42048:1,2005-06-03T18:30:00Z,27.9396,-96.8429,2.0,61.28185595,9.760619857,-99999.0,'11133222,11111222,99999999' 
TABS,ioos:station:wmo:42048:1,2005-06-03T19:00:00Z,27.9396,-96.8429,2.0,58.1556771,7.922455427,-99999.0,'11133222,11111222,99999999' 
TABS,ioos:station:wmo:42048:1,2005-06-03T19:30:00Z,27.9396,-96.8429,2.0,48.47385311,4.4346364,-99999.0,'11133222,11111222,99999999' 
TABS,ioos:station:wmo:42048:1,2005-06-03T20:00:00Z,27.9396,-96.8429,2.0,52.59732446,10.32244642,-99999.0,'11111222,11111222,99999999' 
TABS,ioos:station:wmo:42048:1,2005-06-03T20:30:00Z,27.9396,-96.8429,2.0,55.64721267,8.151864817,-99999.0,'11133222,11111222,99999999' 
TABS,ioos:station:wmo:42048:1,2005-06-03T21:00:00Z,27.9396,-96.8429,2.0,32.34537616,7.326834241,-99999.0,'11133222,11111222,99999999' 
TABS,ioos:station:wmo:42048:1,2005-06-03T21:30:00Z,27.9396,-96.8429,2.0,43.47826222,6.656222653,-99999.0,'11133222,11111222,99999999' 
TABS,ioos:station:wmo:42048:1,2005-06-03T22:00:00Z,27.9396,-96.8429,2.0,20.77597774,5.187301803,-99999.0,'11133222,11111222,99999999' 
TABS,ioos:station:wmo:42048:1,2005-06-03T22:30:00Z,27.9396,-96.8429,2.0,28.6732899,2.917807396,-99999.0,'11133222,11111222,99999999' 
TABS,ioos:station:wmo:42048:1,2005-06-03T23:00:00Z,27.9396,-96.8429,2.0,22.70031958,6.037698237,-99999.0,'11133222,11111222,99999999' 
TABS,ioos:station:wmo:42048:1,2005-06-03T23:30:00Z,27.9396,-96.8429,2.0,21.70860694,3.433511322,-99999.0,'11133222,11111222,99999999' 
TABS,ioos:station:wmo:42048:1,2005-06-04T00:00:00Z,27.9396,-96.8429,2.0,24.12476222,4.306100324,-99999.0,'11133222,11111222,99999999' 
TABS,ioos:station:wmo:42048:1,2005-06-04T00:30:00Z,27.9396,-96.8429,2.0,0.162981741,3.520014205,-99999.0,'11133222,11111222,99999999' 
TABS,ioos:station:wmo:42048:1,2005-06-04T01:00:00Z,27.9396,-96.8429,2.0,287.6655658,1.64769536,-99999.0,'11133222,11111222,99999999' 
TABS,ioos:station:wmo:42048:1,2005-06-04T01:30:00Z,27.9396,-96.8429,2.0,258.5141892,2.561288738,-99999.0,'11133222,11111222,99999999' 
TABS,ioos:station:wmo:42048:1,2005-06-04T02:00:00Z,27.9396,-96.8429,2.0,111.8895056,1.207021127,-99999.0,'11133222,11111222,99999999' 
TABS,ioos:station:wmo:42048:1,2005-06-04T02:30:00Z,27.9396,-96.8429,2.0,323.9729213,0.27202941,-99999.0,'11133222,11111222,99999999' 
TABS,ioos:station:wmo:42048:1,2005-06-04T03:00:00Z,27.9396,-96.8429,2.0,257.3841642,2.151952602,-99999.0,'11133222,11111222,99999999' 
TABS,ioos:station:wmo:42048:1,2005-06-04T03:30:00Z,27.9396,-96.8429,2.0,253.559238,2.544012579,-99999.0,'11133222,11111222,99999999' 
TABS,ioos:station:wmo:42048:1,2005-06-04T04:00:00Z,27.9396,-96.8429,2.0,311.1452511,2.6293155,-99999.0,'11133222,11111222,99999999' 
TABS,ioos:station:wmo:42048:1,2005-06-04T04:30:00Z,27.9396,-96.8429,2.0,255.1470349,1.872565086,-99999.0,'11133222,11111222,99999999' 
TABS,ioos:station:wmo:42048:1,2005-06-04T05:00:00Z,27.9396,-96.8429,2.0,305.7977402,2.564449259,-99999.0,'11133222,11111222,99999999' 
TABS,ioos:station:wmo:42048:1,2005-06-04T05:30:00Z,27.9396,-96.8429,2.0,346.1392153,3.965476012,-99999.0,'11133222,11111222,99999999' 
TABS,ioos:station:wmo:42048:1,2005-06-04T06:00:00Z,27.9396,-96.8429,2.0,339.5903754,3.670422319,-99999.0,'11133222,11111222,99999999' 
TABS,ioos:station:wmo:42048:1,2005-06-04T06:30:00Z,27.9396,-96.8429,2.0,251.8064257,3.747332385,-99999.0,'11133222,11111222,99999999' 
TABS,ioos:station:wmo:42048:1,2005-06-04T07:00:00Z,27.9396,-96.8429,2.0,306.1176235,6.090525429,-99999.0,'11133222,11111222,99999999' 
TABS,ioos:station:wmo:42048:1,2005-06-04T07:30:00Z,27.9396,-96.8429,2.0,250.055961,3.723291555,-99999.0,'11133222,11111222,99999999' 
TABS,ioos:station:wmo:42048:1,2005-06-04T08:00:00Z,27.9396,-96.8429,2.0,320.6161572,3.829686671,-99999.0,'11133222,11111222,99999999' 
TABS,ioos:station:wmo:42048:1,2005-06-04T08:30:00Z,27.9396,-96.8429,2.0,288.7299032,2.460284536,-99999.0,'11133222,11111222,99999999' 
TABS,ioos:station:wmo:42048:1,2005-06-04T09:00:00Z,27.9396,-96.8429,2.0,324.6330112,3.127075311,-99999.0,'11133222,11111222,99999999' 
TABS,ioos:station:wmo:42048:1,2005-06-04T09:30:00Z,27.9396,-96.8429,2.0,272.9870509,2.303128307,-99999.0,'11133222,11111222,99999999' 
TABS,ioos:station:wmo:42048:1,2005-06-04T10:00:00Z,27.9396,-96.8429,2.0,257.3470522,1.004390362,-99999.0,'11133222,11111222,99999999' 
TABS,ioos:station:wmo:42048:1,2005-06-04T10:30:00Z,27.9396,-96.8429,2.0,208.0974068,4.012941564,-99999.0,'11133222,11111222,99999999' 
TABS,ioos:station:wmo:42048:1,2005-06-04T11:00:00Z,27.9396,-96.8429,2.0,314.5561723,3.648780618,-99999.0,'11133222,11111222,99999999' 
TABS,ioos:station:wmo:42048:1,2005-06-04T11:30:00Z,27.9396,-96.8429,2.0,266.5931433,1.682973559,-99999.0,'11133222,11111222,99999999' 
TABS,ioos:station:wmo:42048:1,2005-06-04T12:00:00Z,27.9396,-96.8429,2.0,228.95894,2.969865317,-99999.0,'11133222,11111222,99999999' 
TABS,ioos:station:wmo:42048:1,2005-06-04T12:30:00Z,27.9396,-96.8429,2.0,29.55382498,1.115078473,-99999.0,'11133222,11111222,99999999' 
TABS,ioos:station:wmo:42048:1,2005-06-04T13:00:00Z,27.9396,-96.8429,2.0,226.5583649,2.079663434,-99999.0,'11133222,11111222,99999999' 
TABS,ioos:station:wmo:42048:1,2005-06-04T13:30:00Z,27.9396,-96.8429,2.0,239.8629026,3.445765517,-99999.0,'11133222,11111222,99999999' 
TABS,ioos:station:wmo:42048:1,2005-06-04T14:00:00Z,27.9396,-96.8429,2.0,276.2467219,2.022003956,-99999.0,'11133222,11111222,99999999' 
TABS,ioos:station:wmo:42048:1,2005-06-04T14:30:00Z,27.9396,-96.8429,2.0,260.2378271,3.774652302,-99999.0,'11133222,11111222,99999999' 
TABS,ioos:station:wmo:42048:1,2005-06-04T15:00:00Z,27.9396,-96.8429,2.0,216.6613623,3.852025441,-99999.0,'11133222,11111222,99999999' 
TABS,ioos:station:wmo:42048:1,2005-06-04T15:30:00Z,27.9396,-96.8429,2.0,232.8115978,4.682072191,-99999.0,'11133222,11111222,99999999' 
TABS,ioos:station:wmo:42048:1,2005-06-04T16:00:00Z,27.9396,-96.8429,2.0,231.6946863,4.791502896,-99999.0,'11133222,11111222,99999999' 